Regional Weather Roundup
Issued by NWS

Home | Current Version | Previous Version | Text Only | Print | Product List | Glossary On
Versions: 1 2 3 4 5 6 7 8 9 10 11 12 13 14 15 16 17 18 19 20 21 22 23 24 25 26 27
000
ASUS46 KPQR 300510
RWROR

OREGON REGIONAL WEATHER ROUNDUP
NATIONAL WEATHER SERVICE PORTLAND OR
1000 PM PDT FRI JUL 29 2016

NOTE: "FAIR" INDICATES FEW OR NO CLOUDS BELOW 12,000 FEET WITH
NO SIGNIFICANT WEATHER AND/OR OBSTRUCTIONS TO VISIBILITY.

ORZ001>013-300600-
NORTHWEST OREGON


CITY           SKY/WX    TMP DP  RH WIND       PRES   REMARKS
ASTORIA        CLOUDY    61  55  81 NW9       30.02R
NEWPORT        CLOUDY    59  55  88 N17G25    30.02S
PORTLAND       CLEAR     74  56  53 NW10      29.90R
VANCOUVER WA   CLEAR     73  56  54 NW7       29.90R
SCAPPOOSE      CLEAR     70  55  59 N12       29.90R
HILLSBORO      CLEAR     70  54  56 NW14      29.90R
AURORA         CLEAR     77  49  37 N14G21    29.90R
MCMINNVILLE    CLEAR     66  55  67 W8        29.91R
SALEM          CLEAR     73  53  49 W8        29.89R
CORVALLIS        N/A     68  54  60 W20G26    29.90R
EUGENE         CLEAR     74  55  51 N6        29.90R
$$

ORZ021-028-300600-
SOUTHWEST OREGON


CITY           SKY/WX    TMP DP  RH WIND       PRES   REMARKS
NORTH BEND     CLOUDY    61  57  88 N22G32    30.00R
BROOKINGS      CLEAR     61  55  81 CALM      29.84R
ROSEBURG       CLEAR     82  54  37 N5        29.88R
SEXTON SUMMIT  CLEAR     69  55  60 N8G20     30.02R
MEDFORD        CLEAR     87  43  21 NW3       29.86R
$$

ORZ014>016-041-300600-
COLUMBIA GORGE


CITY           SKY/WX    TMP DP  RH WIND       PRES   REMARKS
TROUTDALE      CLEAR     75  57  53 VRB3      29.89R
HOOD RIVER     CLEAR     77  59  53 NW5       29.83R
THE DALLES     CLEAR     86  54  33 W15       29.75R
$$

ORZ029>031-041-044-049-050-061>064-502-503-505>511-300600-
EASTERN OREGON


CITY           SKY/WX    TMP DP  RH WIND       PRES   REMARKS
REDMOND        CLEAR     79  40  24 NW10      29.96R
BEND           CLEAR     75  46  35 NW5       29.98R
PRINEVILLE     CLEAR     73  37  27 CALM      29.97R
KLAMATH FALLS  CLEAR     79  55  43 NW6       30.00R
LAKEVIEW       CLEAR    N/A N/A N/A N10       30.04R
HERMISTON      CLEAR     87  53  31 S8        29.70R
PENDLETON      CLEAR     81  38  21 S8        29.77R
JOHN DAY       CLEAR     84  44  24 CALM      29.94R
MEACHAM        CLEAR     66  46  48 CALM      29.96S
LA GRANDE      CLEAR     77  43  29 N6        29.87S
BAKER CITY     CLEAR     71  49  45 NW8       29.92R
BURNS          CLEAR     74  32  21 W7        29.95R
ROME             N/A     84  34  16 NE3       29.91R
ONTARIO        CLEAR     76  56  49 W3        29.79R
$$




USA.gov is the U.S. government's official web portal to all federal, state and local government web resources and services.